Location: Betra
(48.4113°N, 8.6634°E)
Time: 17:36:33
(UTC+00:00)

Resurs 1-4 Rocket - Pass Details

Date: 08 August 2024
Orbit: 798 x 813 km, 98.7° (Epoch: 06 September)

Event Time Altitude Azimuth Distance (km) Brightness Sun altitude
Rises 01:43:31 0° 13° (NNE) 3,347 6.6 -19.1°
Reaches altitude 10° 01:45:52 10° 13° (NNE) 2,410 5.6 -18.9°
Maximum altitude 01:51:12 81° 287° (WNW) 826 2.1 -18.4°
Enters shadow 01:53:47 32° 204° (SSW) 1,368 2.7 -18.2°
